Home   Weather   Nashville   Past weeks

Flag for USA Past Weather in Nashville, Tennessee, USA — Yesterday and Last 2 Weeks

73 °F

Thundershowers. Cloudy.

Feels Like: 73 °F
Forecast: 57 / 82 °F
Wind: 8 mph from West

Location: Nashville International Airport

Current Time: Oct 20, 2016 at 4:25:11 PM

Latest Report: Oct 20, 2016 at 3:53 PM

Visibility: 10 mi

Pressure: 29.89 "Hg

Humidity: 81%

Dew Point: 67 °F

Location of NashvilleLocation

Past Weather in Nashville — Graph


Nashville Temperature Yesterday

Maximum temperature yesterday: 90 °F (at 1:53 PM)
Minimum temperature yesterday: 61 °F (at 5:53 AM)
Average temperature yesterday: 75 °F

High & Low Weather Summary for the Past Weeks

High90 °F (Oct 19, 1:53 PM)93% (Oct 7, 5:53 AM)30.37 "Hg (Oct 7, 5:53 AM)
Low47 °F (Oct 10, 6:53 AM)21% (Oct 8, 3:53 PM)29.87 "Hg (Oct 17, 5:53 PM)
Average69 °F60%30.12 "Hg
* Reported Oct 5 2:53 PM — Oct 20 2:53 PM, Nashville, Weather by CustomWeather, © 2016

Note: Actual official high and low records may vary slightly from our data, if they occured in-between our weather recording intervals... More about our weather records


Nashville Weather History for the Previous 24 Hours

Scroll right to see more
Time TempWeatherWind HumidityBarometerVisibility
2:53 PM
Thu, Oct 20
74 °FCloudy.8 mph76%29.89 "Hg10 mi
1:53 PM70 °FRain. Cloudy.3 mph81%29.90 "Hg7 mi
12:53 PM81 °FCloudy.7 mph58%29.92 "Hg10 mi
11:53 AM79 °FBroken clouds.10 mph60%29.95 "Hg10 mi
10:53 AM77 °FMostly cloudy.7 mph56%29.96 "Hg10 mi
9:53 AM75 °FCloudy.8 mph69%29.98 "Hg10 mi
8:53 AM75 °FCloudy.3 mph69%29.97 "Hg10 mi
7:53 AM74 °FMostly cloudy.7 mph69%29.96 "Hg10 mi
6:53 AM72 °FBroken clouds.5 mph73%29.96 "Hg10 mi
5:53 AM72 °FOvercast.3 mph71%29.96 "Hg10 mi
4:53 AM72 °FOvercast.3 mph68%29.96 "Hg10 mi
3:53 AM70 °FOvercast.3 mph76%29.96 "Hg10 mi
2:53 AM73 °FOvercast.No wind66%29.97 "Hg10 mi
1:53 AM72 °FOvercast.No wind66%29.96 "Hg10 mi
12:53 AM70 °FPassing clouds.6 mph71%29.95 "Hg10 mi
11:53 PM
Wed, Oct 19
71 °FPassing clouds.5 mph68%29.96 "Hg10 mi
10:53 PM70 °FPassing clouds.5 mph71%29.98 "Hg10 mi
9:53 PM71 °FClear.6 mph68%29.98 "Hg10 mi
8:53 PM75 °FPassing clouds.3 mph58%29.99 "Hg8 mi
7:53 PM77 °FPassing clouds.No wind54%30.00 "Hg10 mi
6:53 PM81 °FPassing clouds.No wind44%29.98 "Hg10 mi
5:53 PM85 °FPassing clouds.3 mph37%29.96 "Hg10 mi
4:53 PM88 °FScattered clouds.10 mph33%29.96 "Hg10 mi
Weather by CustomWeather, © 2016

See weather overviewHow to use our weather pages